Vertical_Velocity
4 -0 2 3 -2 5 -3 -4 -1 -4 -4 -0 1 -1 -2 7 2 -7 1 -2 4 0 2 1 3 1 -2 -1 0 1 2 2 -1 -2 -3 -1 0 -0 -1 -2 -1 1 -1 -1 -1 -1 -1 1 1
2 2 0 3 2 2 -6 -2 -6 3 -1 -2 -1 1 -1 -6 2 -0 -0 1 -2 5 7 0 5 3 1 -1 -0 1 1 2 2 -0 -2 -3 -1 -1 -1 -1 -1 -1 -0 -0 -1 -1 0 1 -1
-2 1 4 -0 -2 -10 -0 4 -6 1 1 -0 -3 1 -0 -4 -1 -6 -4 2 3 -3 1 3 4 1 2 1 0 2 0 2 2 1 -2 -2 -2 -2 -1 -1 -2 -1 -0 -0 -1 -1 -1 0 -0
-2 -1 1 -1 -2 5 -1 -1 -2 -1 1 -1 3 1 -0 0 2 -1 1 -1 2 -1 3 4 4 4 2 2 2 2 1 1 2 2 0 -3 -2 -2 -2 -2 -3 -1 -2 -1 0 1 -3 2 0
-1 -1 -1 -3 -2 -3 4 1 2 1 -0 3 2 -2 0 1 1 1 4 3 -1 -2 1 2 5 5 4 -1 3 5 3 1 1 0 1 0 -2 -2 0 -1 -2 -1 -1 -1 1 1 -1 -2 0
-0 0 -4 -6 -0 6 -2 5 1 0 2 9 1 -6 -2 3 -0 0 1 2 -3 -4 -4 7 1 4 4 3 1 2 4 3 2 0 0 -0 0 -2 -1 0 -1 -2 -2 -2 -1 -1 0 -1 -1
-2 1 -4 0 -9 4 2 2 -0 1 -6 -8 3 -5 -11 5 3 4 -1 6 0 -2 -4 0 14 3 6 1 3 2 2 3 3 4 -1 -0 2 -0 -0 -1 1 0 -2 -1 -1 -0 -0 -1 -1
-5 -0 -2 -7 -1 -1 1 -4 7 -3 -8 -7 5 -13 -13 12 13 3 2 -1 7 1 6 -2 -0 6 11 1 2 2 8 5 -0 3 3 -1 1 1 -0 0 -2 -1 -1 -1 -3 -1 1 -0 -1
-1 -3 -7 -8 4 4 -0 -3 9 -1 -10 -4 1 -2 -3 5 -0 3 -2 5 3 8 0 7 3 4 6 12 5 1 1 8 5 -0 5 2 1 -0 -0 0 0 -1 -2 -2 0 -3 -1 1 0
-2 -6 -7 5 -4 2 4 -7 -0 -2 4 -9 -12 8 -2 -15 7 -0 2 -4 -0 6 9 5 13 2 5 10 10 6 1 -0 2 -1 -0 4 3 1 1 2 -2 1 -1 -2 -1 -1 -1 -1 2
-1 -9 10 3 0 -0 -9 -11 4 -5 -14 -1 -4 9 3 -9 -3 -2 5 -10 2 -5 -8 13 8 1 -1 3 5 5 3 -1 1 1 -3 2 4 -0 -1 1 -3 -2 -1 -2 -1 -1 -2 -1 -0
-4 -4 1 -6 -4 -2 -6 -11 -19 -1 -23 1 4 -5 0 -1 -6 0 -3 8 2 1 7 5 1 -12 18 12 0 5 3 2 2 0 0 -5 -2 3 2 1 1 0 -0 -2 -1 -1 -1 -3 -2
-15 -3 -2 2 -1 -1 5 -7 -10 -14 -7 9 -3 -3 -9 -5 -12 -4 -4 -1 8 1 5 11 4 66 -5 -4 9 7 -2 2 6 -1 4 -3 -1 3 4 4 1 2 0 1 -0 -0 -1 -1 -2
1 -1 -4 -1 -3 -6 -4 -12 11 -3 15 -3 -4 -7 -2 -4 -10 8 -5 -2 -2 5 6 4 17 79 -18 -7 -3 4 -0 4 -0 5 -1 3 -1 1 2 5 1 -1 -1 1 0 1 1 0 -0
4 -11 -2 2 3 -9 -4 -8 -6 2 6 -12 1 -5 2 1 4 1 3 -3 -11 -12 -12 -1 15 -15 -18 1 6 8 1 -1 3 -0 1 4 0 -1 0 5 -1 0 -1 -2 -1 -2 -1 0 -0
-2 3 -3 4 2 1 1 -28 10 1 -1 -2 7 4 -7 7 -3 -7 -2 -3 3 -4 -0 13 -13 -4 23 -5 -8 9 12 3 6 -2 -1 3 -1 3 -0 3 4 0 -3 -2 0 0 0 -1 -1
-2 -2 -2 -7 -1 0 3 -17 5 5 1 -9 -5 -7 -4 3 3 2 -1 -2 -0 -4 -8 -8 -10 20 -7 -13 24 -10 14 8 10 -2 -4 2 -0 1 0 2 6 4 -3 -2 -2 -0 0 0 2
-1 1 1 -4 -5 2 5 -11 3 -6 -7 -4 -4 2 -1 -4 -2 -3 0 -4 -5 -8 -6 14 6 -14 14 8 -14 7 5 11 16 -1 -2 -1 3 1 5 2 2 2 3 -1 -2 -1 -4 2 1
-1 12 2 -1 2 -6 5 2 -2 -14 3 -1 4 -12 -15 -6 -21 1 1 4 5 4 -10 24 -17 -3 94 15 -5 -20 -32 11 -10 4 2 -1 0 -4 -4 3 1 1 2 6 4 1 -0 -1 0
-0 -1 -4 -11 1 5 1 7 4 -10 8 14 8 -7 -1 -6 -3 4 -9 3 15 11 -2 -17 3 -22 99 -14 6 -1 -27 16 18 25 -1 7 -1 4 4 3 2 1 1 -1 2 0 2 0 -1
-4 1 -0 3 -8 6 -1 3 -18 3 20 0 2 19 -0 -15 -19 -7 3 -2 27 3 -38 -13 1 -17 26 17 2 -4 2 12 1 10 4 1 19 4 5 3 -2 2 5 1 3 2 -0 0 2
-5 4 5 -0 -0 -4 4 -4 -12 -9 -9 2 8 -3 -2 12 10 12 4 11 18 29 18 -4 10 -21 -22 42 25 9 -8 -8 -11 8 9 1 11 6 10 9 2 3 4 4 2 5 2 1 -0
-8 2 -2 5 1 -1 3 0 -2 -5 -21 -18 -13 10 -23 50 12 46 5 13 29 2 -4 19 17 -27 -9 8 -21 2 8 2 72 44 34 1 2 5 -0 10 4 4 2 5 4 2 -2 -1 1
2 2 1 1 1 -1 0 2 -5 -12 -0 2 20 20 3 44 7 -0 26 22 -2 -2 6 -23 -14 10 2 -18 -1 10 -1 -6 1 -15 -14 -27 29 -2 -15 10 3 3 2 3 5 3 0 -0 5
9 3 -0 -3 0 -0 3 -7 10 3 1 5 -2 2 8 14 12 35 18 11 -3 10 -21 -5 6 5 -0 -13 -1 3 -1 2 8 2 8 7 -1 3 4 0 -2 -2 1 2 -1 -2 6 6 7
3 -2 -1 -3 0 0 4 -2 8 4 8 2 4 5 10 18 35 5 3 10 9 -5 -8 2 16 -2 -4 -2 -7 0 -9 2 5 6 10 2 11 11 5 0 0 -1 3 0 4 6 8 5 -18
1 -3 0 -1 -2 -5 1 1 3 -2 5 2 -1 -11 -2 -6 4 11 4 9 7 20 16 10 -3 -3 11 -3 1 1 7 -3 6 -1 5 9 4 -27 5 7 4 6 7 2 12 12 10 6 -17
3 0 -2 -1 -4 -1 0 2 1 -12 -4 2 0 -4 -9 -1 3 -6 2 -3 3 -0 -5 -5 -1 1 -9 35 9 23 1 35 -0 -10 -3 7 11 0 8 9 7 15 17 17 5 -1 1 0 1
-3 -2 0 -0 -0 -4 -2 3 3 0 -4 2 7 -1 6 -4 3 2 0 -3 2 -4 -4 -2 -2 -1 -4 0 7 3 46 8 4 8 7 4 2 4 3 1 3 6 -5 -9 5 12 7 -4 -13
2 3 2 3 -0 -2 1 0 -5 2 -3 4 2 0 1 0 -0 5 -0 0 -1 1 -2 -5 -5 -1 5 -8 -2 0 -3 6 -4 6 7 13 1 6 0 -2 -4 -5 -2 11 18 4 2 2 2
Height
3095 3095 3098 3102 3110 3099 3093 3095 3101 3104 3109 3107 3110 3115 3117 3123 3126 3129 3127 3129 3134 3137 3139 3141 3142 3143 3144 3145 3147 3148 3149 3150 3151 3152 3153 3154 3156 3159 3160 3160 3161 3163 3163 3162 3163 3163 3164 3165 3166
3088 3090 3093 3094 3097 3090 3088 3093 3094 3102 3104 3106 3107 3108 3111 3113 3120 3121 3124 3127 3130 3134 3136 3138 3140 3141 3142 3143 3145 3147 3149 3149 3150 3151 3153 3155 3156 3159 3160 3161 3162 3163 3164 3164 3164 3165 3165 3167 3168
3085 3086 3089 3090 3086 3083 3087 3087 3090 3096 3099 3101 3104 3105 3106 3107 3111 3112 3117 3122 3125 3130 3134 3136 3138 3139 3140 3141 3143 3146 3148 3149 3150 3151 3152 3154 3156 3158 3160 3161 3162 3164 3164 3165 3166 3167 3166 3167 3168
3084 3086 3087 3082 3078 3081 3084 3086 3090 3092 3094 3095 3097 3102 3100 3101 3105 3108 3111 3117 3121 3126 3131 3134 3135 3137 3137 3139 3141 3144 3146 3148 3149 3150 3151 3154 3155 3157 3160 3162 3162 3163 3165 3166 3167 3168 3167 3168 3170
3083 3083 3083 3076 3077 3078 3082 3087 3089 3090 3090 3091 3092 3092 3092 3098 3100 3103 3106 3112 3116 3120 3127 3131 3132 3134 3136 3137 3139 3142 3144 3146 3148 3149 3150 3152 3155 3157 3159 3161 3163 3163 3164 3166 3168 3169 3170 3169 3171
3080 3080 3078 3073 3074 3075 3079 3083 3085 3086 3088 3089 3086 3086 3087 3091 3095 3098 3102 3106 3112 3116 3119 3126 3130 3131 3133 3135 3136 3139 3142 3144 3146 3148 3149 3151 3154 3156 3159 3160 3162 3163 3164 3166 3168 3170 3172 3172 3172
3077 3077 3071 3069 3070 3072 3073 3077 3075 3076 3077 3080 3080 3075 3077 3088 3093 3094 3098 3101 3106 3111 3114 3118 3123 3129 3130 3132 3134 3137 3140 3142 3144 3146 3148 3150 3152 3155 3157 3159 3161 3162 3164 3166 3168 3170 3172 3173 3174
3073 3074 3068 3067 3066 3065 3070 3070 3067 3067 3066 3070 3071 3063 3069 3079 3086 3087 3089 3094 3099 3105 3110 3113 3118 3122 3126 3130 3131 3134 3137 3139 3142 3144 3146 3149 3151 3154 3156 3158 3160 3162 3163 3166 3168 3170 3172 3174 3175
3069 3069 3065 3063 3063 3061 3066 3061 3064 3060 3056 3060 3062 3058 3061 3073 3075 3080 3084 3087 3091 3097 3102 3107 3111 3116 3120 3124 3128 3130 3133 3136 3138 3141 3143 3147 3149 3152 3154 3157 3159 3161 3163 3165 3167 3169 3172 3174 3176
3065 3063 3062 3063 3061 3059 3060 3058 3057 3055 3054 3051 3052 3055 3059 3066 3071 3072 3078 3080 3083 3087 3093 3099 3104 3109 3114 3118 3122 3125 3129 3131 3134 3137 3140 3143 3147 3150 3153 3155 3158 3160 3162 3164 3166 3169 3172 3174 3176
3061 3059 3061 3060 3060 3057 3054 3054 3053 3050 3043 3049 3047 3050 3049 3052 3057 3060 3068 3073 3076 3081 3085 3090 3091 3098 3106 3111 3115 3119 3123 3126 3130 3133 3137 3140 3145 3148 3151 3153 3155 3158 3160 3163 3166 3168 3170 3173 3175
3058 3059 3059 3058 3057 3053 3053 3050 3045 3044 3040 3041 3039 3040 3038 3039 3043 3046 3053 3063 3068 3072 3077 3081 3088 3092 3097 3104 3108 3113 3117 3121 3124 3129 3132 3137 3141 3145 3149 3152 3155 3157 3159 3162 3165 3167 3170 3172 3174
3057 3057 3056 3054 3052 3050 3047 3045 3043 3035 3037 3037 3035 3032 3032 3033 3036 3038 3041 3050 3054 3058 3069 3073 3076 3074 3081 3099 3103 3107 3113 3118 3121 3125 3129 3134 3139 3143 3147 3151 3153 3156 3158 3161 3164 3167 3169 3171 3173
3057 3054 3050 3049 3048 3045 3044 3039 3039 3032 3034 3031 3029 3025 3027 3026 3028 3031 3034 3040 3044 3052 3059 3066 3071 3074 3078 3091 3099 3103 3108 3114 3117 3121 3126 3131 3137 3141 3145 3148 3151 3154 3157 3160 3162 3165 3168 3170 3172
3054 3050 3049 3047 3047 3043 3041 3033 3032 3031 3030 3026 3024 3021 3021 3020 3024 3025 3029 3033 3037 3041 3053 3059 3065 3073 3075 3083 3090 3098 3104 3109 3114 3117 3123 3128 3133 3138 3143 3146 3149 3152 3155 3158 3160 3163 3166 3168 3171
3051 3049 3046 3045 3044 3042 3040 3029 3031 3029 3025 3020 3018 3016 3015 3016 3015 3015 3016 3021 3027 3034 3044 3050 3058 3065 3068 3075 3084 3091 3098 3103 3109 3113 3119 3124 3130 3135 3139 3143 3146 3150 3153 3156 3159 3162 3165 3167 3169
3049 3046 3044 3041 3042 3039 3036 3026 3026 3023 3017 3010 3007 3006 3004 3003 3004 3005 3005 3011 3017 3026 3039 3046 3050 3056 3061 3070 3073 3084 3094 3099 3104 3110 3115 3120 3126 3131 3136 3140 3143 3146 3150 3154 3157 3160 3163 3165 3167
3047 3045 3043 3040 3039 3036 3033 3026 3024 3017 3009 3001 2996 2994 2993 2992 2992 2992 2995 3002 3010 3021 3031 3043 3049 3054 3054 3063 3069 3076 3086 3093 3097 3104 3110 3115 3121 3127 3130 3135 3140 3143 3147 3150 3154 3157 3160 3162 3163
3044 3041 3040 3038 3038 3033 3030 3026 3021 3014 3003 2995 2989 2987 2986 2985 2984 2984 2988 2996 3004 3015 3029 3037 3043 3052 3038 3048 3058 3068 3076 3086 3093 3099 3106 3110 3116 3122 3127 3131 3134 3139 3143 3148 3151 3153 3155 3158 3160
3041 3039 3037 3036 3035 3032 3028 3025 3021 3009 3001 2993 2987 2984 2978 2978 2978 2981 2987 2993 3002 3013 3021 3031 3037 3045 3038 3045 3057 3063 3068 3081 3088 3095 3101 3104 3109 3116 3121 3125 3130 3136 3139 3143 3146 3149 3152 3154 3156
3039 3038 3036 3035 3032 3030 3026 3024 3015 3006 2998 2990 2985 2979 2973 2973 2974 2977 2982 2992 3000 3011 3021 3030 3034 3037 3037 3041 3047 3052 3062 3073 3081 3086 3094 3100 3104 3111 3117 3122 3127 3132 3135 3140 3143 3146 3148 3151 3153
3033 3033 3033 3032 3032 3029 3028 3025 3016 3007 2998 2989 2984 2978 2973 2973 2972 2975 2982 2992 3000 3011 3016 3023 3028 3033 3030 3037 3043 3046 3058 3064 3073 3080 3090 3096 3098 3105 3112 3118 3122 3127 3131 3135 3140 3142 3145 3147 3150
3030 3029 3029 3030 3031 3030 3027 3024 3023 3010 3001 2996 2988 2979 2972 2974 2978 2974 2984 2994 3000 3004 3014 3024 3028 3032 3033 3037 3042 3048 3053 3061 3059 3071 3078 3084 3093 3100 3107 3112 3117 3122 3126 3131 3135 3138 3140 3143 3146
3028 3026 3027 3028 3030 3030 3027 3025 3023 3014 3008 3001 2987 2980 2978 2978 2985 2988 2989 2995 3002 3007 3010 3019 3027 3031 3032 3034 3041 3047 3051 3056 3062 3068 3078 3081 3086 3089 3101 3107 3112 3117 3122 3126 3131 3134 3136 3139 3140
3028 3025 3027 3031 3028 3032 3028 3028 3031 3023 3015 3008 2998 2990 2982 2985 2991 2991 2991 2996 3003 3008 3011 3020 3021 3024 3027 3030 3036 3041 3046 3053 3059 3065 3071 3075 3081 3084 3092 3101 3107 3112 3117 3122 3125 3128 3130 3132 3133
3028 3027 3028 3032 3028 3032 3031 3035 3036 3028 3022 3014 3005 2997 2988 2987 2990 2994 2997 3001 3005 3011 3017 3019 3019 3023 3022 3025 3033 3039 3043 3049 3054 3060 3065 3070 3074 3080 3089 3097 3104 3108 3112 3115 3119 3121 3124 3124 3124
3029 3029 3030 3030 3030 3032 3038 3037 3035 3031 3024 3018 3012 3005 2996 2994 2995 2998 2999 3005 3008 3013 3016 3017 3017 3020 3020 3023 3029 3033 3041 3047 3052 3058 3062 3065 3070 3076 3084 3090 3096 3101 3105 3110 3113 3114 3116 3118 3120
3030 3032 3031 3030 3037 3040 3039 3038 3039 3032 3026 3024 3018 3014 3008 3003 3002 3003 3005 3008 3011 3013 3016 3018 3020 3021 3021 3021 3026 3030 3033 3041 3047 3053 3055 3059 3065 3071 3078 3084 3090 3094 3098 3101 3104 3106 3109 3110 3113
3033 3031 3031 3031 3033 3037 3043 3041 3038 3036 3032 3029 3025 3022 3018 3014 3009 3009 3010 3012 3015 3019 3021 3022 3022 3021 3021 3021 3021 3027 3031 3039 3044 3047 3051 3054 3059 3064 3071 3077 3082 3086 3091 3093 3095 3098 3100 3101 3105
3038 3035 3033 3033 3037 3035 3036 3042 3039 3038 3036 3034 3032 3028 3024 3022 3020 3016 3014 3016 3020 3023 3024 3024 3023 3024 3022 3025 3025 3027 3032 3038 3041 3046 3049 3051 3056 3059 3064 3069 3075 3078 3081 3084 3086 3088 3091 3094 3097